COSMOS 1823 DEB, 18728

Orbit data source: Space-Track

COSMOS 1823 DEB, 18728 is space debris in LEO originally from a launch on Fri, 20 Feb 1987 UTC launched from the Plesetsk Missile And Space Complex (PKMTR). Debris objects in space refer to the collection of defunct objects orbiting the Earth. Examples of debris include non-operational satellites, rocket bodies, and fragments generated from explosions, collisions, or faulty payload assembly.

Loading next visibility...
Identifier
18728, 1987-020F
Orbit
LEO
Country
Flag of CISCIS
Related business
Manufacturer
Unknown
Mission
Spacecraft
Bus & Motor
Unknown
Mass
Unknown
Launch date (UTC)
1987-02-20 (39 years ago)
Launch vehicle
Unknown
Launch site
Plesetsk Missile And Space Complex (PKMTR)
Object type
Payload
Rocket body
Debris
Shape & HBR
Unknown shape, 0.1 m
Radar Cross Section
Medium (>0.1 m² and <1 m²)

Expand to show TLE details & history
Last TLE update: 2 days ago

TLE from 2 days ago
0 COSMOS 1823 DEB
1 18728U 87020F   26171.37351065  .00000275  00000-0  22788-2 0  9993
2 18728  73.6189 275.7548 0067708  74.1548 346.6052 12.36054605736258
Epoch: 2026-06-20T08:57Z
TLE epoch observation values (Epoch: 2026-06-20T08:57:51.320Z)
Latitude
56.78506°
Longitude
-100.76243°
Altitude
1,480.429 km
Speed
7.152 km/s
True Right ascension
20h 09m 09s
True Declination
56° 38' 30"
Sunlit
Object was in daylight at epoch
Visualization orbit readout
Latitude
Unknown
Longitude
Unknown
Altitude
Unknown
Speed
Unknown
Apparent Right ascension
Unknown
Apparent Declination
Unknown
Sunlit
N/A
Visualization observer readout
Local Sidereal Time
05:03:37
Azimuth
Unknown
Elevation
Unknown
Doppler factor
Unknown
Orbital elements
Apogee altitude
1,574.741 km
Perigee altitude
1,467.771 km
Semi-major axis
7,899.393 km
Eccentricity
0.00677
Inclination
73.6189°
RAAN
275.7548°
Arg. of periapsis
74.1548°
True anomaly
346.42397°
Mean anomaly
346.6052°
Eccentric anomaly
346.51473°
Mean motion
3.09138 °/min
Orbital period
116.45 mins
BSTAR
0.0022788
Loading maneuver chart data...
Computing Atmospheric mass density...
Loading historical data...
Loading historical data...
Loading historical data...
Loading historical data...
Loading historical data...
Loading historical data...
Loading historical data...

Documentation

Showing up to 5 results
|